ONEWEB-0128

Last updated on Mon Jan 18 2021 00:02:03 GMT+0000 (Coordinated Universal Time)

1 47274U 20100S 21017.58334491 -.01433367 00000-0 -69446-1 0 9994 2 47274 87.4356 28.9941 0013648 135.6905 154.0726 15.21916641 1803

Satellite not in orbit